{"data":{"norad_id":66927,"epoch":"2026-05-25T00:44:11.330880Z","epoch_age_seconds":72299,"freshness":"FRESH","line1":"1 66927U 25286C   26145.03068670  .00024163  00000+0  72384-3 0  9993","line2":"2 66927  53.1596   3.2384 0001060  96.2253 263.8870 15.34405858 27113","mean_motion":15.34405858,"eccentricity":0.000106,"inclination_deg":53.1596,"raan_deg":3.2384,"arg_perigee_deg":96.2253,"mean_anomaly_deg":263.887,"bstar":0.00072384,"rev_number":2711,"period_min":93.847399792709,"perigee_km":461.9607018321,"apogee_km":463.41095627186,"semimajor_km":6840.822829052,"source":"CELESTRAK","updated_at":"2026-05-25T13:38:21.384959Z"}}